When you browse on this site, cookies collect data to enhance your experience and personalize the content and advertising you see.
Visit our Privacy Policy to learn more. By continuing to use the site, you agree to this use of cookies and data.
  • In Austria
  • List of Countries
  • For 7 days
  • Water Temperature
  • Weather Map
  • News
  • Weather Widgets
  • user-avatar
    Login

    Hourly Weather Haskovo

    Today, 26 February, Wednesday

    Time Temperature Precipitation Wind Pressure Humidity
    00:00 +7°C° 0 mm 2 mps 737 mmHg 80%
    01:00 +7°C° 0 mm 2 mps 736 mmHg 81%
    02:00 +6°C° 0 mm 2 mps 736 mmHg 81%
    03:00 +6°C° 0 mm 2 mps 735 mmHg 81%
    04:00 +6°C° 0 mm 2 mps 735 mmHg 81%
    05:00 +7°C° 0 mm 1 mps 734 mmHg 81%
    06:00 +6°C° 0 mm 2 mps 734 mmHg 81%
    07:00 +6°C° 0 mm 2 mps 734 mmHg 81%
    08:00 +7°C° 0 mm 2 mps 734 mmHg 82%
    09:00 +9°C° 0 mm 3 mps 734 mmHg 77%
    10:00 +11°C° 0 mm 3 mps 733 mmHg 71%
    11:00 +13°C° 0 mm 4 mps 733 mmHg 66%
    12:00 +14°C° 0 mm 5 mps 733 mmHg 64%
    13:00 +14°C° 0 mm 5 mps 732 mmHg 62%
    14:00 +15°C° 0 mm 6 mps 732 mmHg 60%
    15:00 +15°C° 0 mm 6 mps 731 mmHg 62%
    16:00 +14°C° 0 mm 7 mps 731 mmHg 64%
    17:00 +14°C° 0 mm 7 mps 731 mmHg 66%
    18:00 +12°C° 0 mm 7 mps 731 mmHg 70%
    19:00 +11°C° 0 mm 6 mps 731 mmHg 75%
    20:00 +10°C° 0 mm 6 mps 731 mmHg 79%
    21:00 +9°C° 0 mm 5 mps 731 mmHg 79%
    22:00 +9°C° 0 mm 5 mps 731 mmHg 80%
    23:00 +9°C° 0 mm 5 mps 731 mmHg 81%

    Tomorrow, 27 February, Thursday

    Time Temperature Precipitation Wind Pressure Humidity
    00:00 +10°C° 0 mm 4 mps 731 mmHg 81%
    01:00 +10°C° 0 mm 4 mps 731 mmHg 81%
    02:00 +10°C° 0 mm 4 mps 731 mmHg 81%
    03:00 +8°C° 0 mm 4 mps 730 mmHg 80%
    04:00 +8°C° 0 mm 4 mps 730 mmHg 80%
    05:00 +8°C° 0 mm 4 mps 730 mmHg 79%
    06:00 +8°C° 0 mm 5 mps 730 mmHg 77%
    07:00 +9°C° 0 mm 5 mps 730 mmHg 76%
    08:00 +9°C° 0 mm 6 mps 730 mmHg 74%
    09:00 +10°C° 0.1 mm 7 mps 730 mmHg 69%
    10:00 +11°C° 0.1 mm 9 mps 730 mmHg 64%
    11:00 +13°C° 0.1 mm 11 mps 730 mmHg 59%
    12:00 +12°C° 0.3 mm 9 mps 731 mmHg 54%
    13:00 +12°C° 0.3 mm 7 mps 731 mmHg 49%
    14:00 +11°C° 0.3 mm 6 mps 732 mmHg 44%
    15:00 +11°C° 0 mm 6 mps 732 mmHg 46%
    16:00 +10°C° 0 mm 7 mps 732 mmHg 48%
    17:00 +9°C° 0 mm 8 mps 732 mmHg 50%
    18:00 +6°C° 0 mm 7 mps 733 mmHg 52%
    19:00 +5°C° 0 mm 6 mps 734 mmHg 54%
    20:00 +4°C° 0 mm 6 mps 734 mmHg 56%
    21:00 +3°C° 0 mm 6 mps 735 mmHg 57%
    22:00 +3°C° 0 mm 6 mps 736 mmHg 58%
    23:00 +2°C° 0 mm 5 mps 736 mmHg 59%

    Day after tomorrow, 28 February, Friday

    Time Temperature Precipitation Wind Pressure Humidity
    00:00 +2°C° 0 mm 5 mps 737 mmHg 60%
    01:00 +3°C° 0 mm 4 mps 737 mmHg 61%
    02:00 +2°C° 0 mm 3 mps 738 mmHg 61%
    03:00 +2°C° 0 mm 3 mps 738 mmHg 62%
    04:00 +2°C° 0 mm 2 mps 738 mmHg 62%
    05:00 +3°C° 0 mm 1 mps 738 mmHg 62%
    06:00 +3°C° 0 mm 1 mps 738 mmHg 62%
    07:00 +4°C° 0 mm 1 mps 738 mmHg 62%
    08:00 +4°C° 0 mm 1 mps 739 mmHg 61%
    09:00 +5°C° 0 mm 2 mps 738 mmHg 56%
    10:00 +5°C° 0 mm 3 mps 738 mmHg 51%
    11:00 +8°C° 0 mm 3 mps 738 mmHg 45%
    12:00 +8°C° 0 mm 4 mps 738 mmHg 45%
    13:00 +10°C° 0 mm 4 mps 737 mmHg 44%
    14:00 +11°C° 0 mm 4 mps 737 mmHg 43%
    15:00 +11°C° 0 mm 3 mps 737 mmHg 46%
    16:00 +10°C° 0 mm 3 mps 737 mmHg 48%
    17:00 +10°C° 0 mm 3 mps 737 mmHg 50%
    18:00 +8°C° 0.1 mm 4 mps 737 mmHg 60%
    19:00 +6°C° 0.1 mm 5 mps 738 mmHg 69%
    20:00 +4°C° 0.1 mm 7 mps 739 mmHg 78%
    21:00 +4°C° 0.2 mm 6 mps 739 mmHg 74%
    22:00 +4°C° 0.2 mm 6 mps 740 mmHg 70%
    23:00 +3°C° 0.2 mm 5 mps 740 mmHg 66%

    29 February, Saturday

    Time Temperature Precipitation Wind Pressure Humidity
    00:00 +3°C° 0 mm 5 mps 741 mmHg 65%
    01:00 +2°C° 0 mm 6 mps 741 mmHg 65%
    02:00 +2°C° 0 mm 6 mps 741 mmHg 64%
    03:00 +1°C° 0 mm 6 mps 741 mmHg 63%
    04:00 +1°C° 0 mm 5 mps 741 mmHg 62%
    05:00 +1°C° 0 mm 5 mps 741 mmHg 61%
    06:00 +1°C° 0 mm 5 mps 742 mmHg 60%
    07:00 +1°C° 0 mm 4 mps 742 mmHg 59%
    08:00 +1°C° 0 mm 4 mps 743 mmHg 58%
    09:00 +4°C° 0 mm 4 mps 743 mmHg 51%
    10:00 +5°C° 0 mm 4 mps 743 mmHg 45%
    11:00 +7°C° 0 mm 4 mps 744 mmHg 38%
    12:00 +9°C° 0 mm 3 mps 743 mmHg 35%
    13:00 +10°C° 0 mm 3 mps 743 mmHg 31%
    14:00 +12°C° 0 mm 2 mps 743 mmHg 28%
    15:00 +12°C° 0 mm 2 mps 743 mmHg 31%
    16:00 +11°C° 0 mm 1 mps 742 mmHg 33%
    17:00 +10°C° 0 mm 0 mps 742 mmHg 36%
    18:00 +10°C° 0 mm 1 mps 743 mmHg 41%
    19:00 +7°C° 0 mm 2 mps 743 mmHg 46%
    20:00 +6°C° 0 mm 2 mps 743 mmHg 52%
    21:00 +6°C° 0 mm 2 mps 743 mmHg 56%
    22:00 +5°C° 0 mm 2 mps 743 mmHg 61%
    23:00 +5°C° 0 mm 2 mps 743 mmHg 66%

    1 March, Sunday

    Time Temperature Precipitation Wind Pressure Humidity
    00:00 +5°C° 0 mm 2 mps 743 mmHg 68%
    01:00 +5°C° 0 mm 2 mps 743 mmHg 69%
    02:00 +4°C° 0 mm 2 mps 742 mmHg 71%
    03:00 +4°C° 0 mm 2 mps 742 mmHg 72%
    04:00 +4°C° 0 mm 2 mps 742 mmHg 74%
    05:00 +5°C° 0 mm 1 mps 742 mmHg 75%
    06:00 +5°C° 0 mm 1 mps 742 mmHg 74%
    07:00 +5°C° 0 mm 1 mps 742 mmHg 74%
    08:00 +5°C° 0 mm 1 mps 742 mmHg 73%
    09:00 +7°C° 0 mm 1 mps 742 mmHg 67%
    10:00 +9°C° 0 mm 1 mps 742 mmHg 60%
    11:00 +10°C° 0 mm 2 mps 742 mmHg 54%
    12:00 +12°C° 0 mm 2 mps 742 mmHg 52%
    13:00 +12°C° 0 mm 3 mps 741 mmHg 51%
    14:00 +14°C° 0 mm 4 mps 741 mmHg 50%
    15:00 +13°C° 0 mm 4 mps 740 mmHg 54%
    16:00 +13°C° 0 mm 4 mps 740 mmHg 59%
    17:00 +12°C° 0 mm 5 mps 739 mmHg 64%
    18:00 +11°C° 0 mm 4 mps 740 mmHg 69%
    19:00 +10°C° 0 mm 4 mps 740 mmHg 74%
    20:00 +9°C° 0 mm 3 mps 740 mmHg 79%
    21:00 +8°C° 0 mm 3 mps 740 mmHg 80%
    22:00 +8°C° 0 mm 2 mps 740 mmHg 82%
    23:00 +8°C° 0 mm 2 mps 740 mmHg 83%

    2 March, Monday

    Time Temperature Precipitation Wind Pressure Humidity
    00:00 +7°C° 0 mm 2 mps 739 mmHg 85%
    01:00 +7°C° 0 mm 2 mps 739 mmHg 86%
    02:00 +7°C° 0 mm 2 mps 739 mmHg 87%
    03:00 +7°C° 0 mm 2 mps 738 mmHg 87%
    04:00 +8°C° 0 mm 1 mps 738 mmHg 87%
    05:00 +8°C° 0 mm 1 mps 738 mmHg 87%
    06:00 +9°C° 0 mm 1 mps 737 mmHg 86%
    07:00 +9°C° 0 mm 1 mps 737 mmHg 85%
    08:00 +9°C° 0 mm 1 mps 737 mmHg 84%
    09:00 +11°C° 0 mm 1 mps 737 mmHg 76%
    10:00 +13°C° 0 mm 2 mps 737 mmHg 69%
    11:00 +15°C° 0 mm 2 mps 737 mmHg 61%
    12:00 +16°C° 0 mm 3 mps 737 mmHg 58%
    13:00 +17°C° 0 mm 3 mps 737 mmHg 55%
    14:00 +18°C° 0 mm 4 mps 736 mmHg 53%
    15:00 +18°C° 0.1 mm 3 mps 736 mmHg 55%
    16:00 +17°C° 0.1 mm 3 mps 736 mmHg 57%
    17:00 +17°C° 0.1 mm 2 mps 736 mmHg 60%
    18:00 +15°C° 0 mm 2 mps 736 mmHg 66%
    19:00 +14°C° 0 mm 2 mps 737 mmHg 72%
    20:00 +12°C° 0 mm 2 mps 737 mmHg 79%
    21:00 +12°C° 0 mm 1 mps 737 mmHg 79%
    22:00 +12°C° 0 mm 1 mps 737 mmHg 80%
    23:00 +12°C° 0 mm 1 mps 737 mmHg 81%
    Show more